This is the latest recevied weather packets stored in our database for station/object KHOP. If no packets are shown the sender has not sent any weather packets the latest 1 day(s).
| Time | Temp. | Humidity | Pressure | Rain* | Wind** | Luminosity | Snow |
|---|---|---|---|---|---|---|---|
| 1778040813 | 18.89° C | 82% | 1005.8 hPa | - | 5.81 m/s, 190° | - | - |
| 1778040331 | 18.89° C | 82% | 1005.8 hPa | - | 5.81 m/s, 190° | - | - |
| 1778039609 | 17.78° C | 88% | 1005.8 hPa | - | 5.36 m/s, 190° | - | - |
| 1778039016 | 17.78° C | 88% | 1005.8 hPa | - | 5.36 m/s, 190° | - | - |
| 1778038415 | 17.78° C | 88% | 1006.1 hPa | - | 5.36 m/s, 190° | - | - |
| 1778037814 | 17.78° C | 88% | 1006.1 hPa | - | 4.92 m/s, 180° | - | - |
| 1778037210 | 17.78° C | 88% | 1006.1 hPa | - | 4.92 m/s, 180° | - | - |
| 1778036609 | 17.78° C | 88% | 1006.4 hPa | - | 4.47 m/s, 180° | - | - |
| 1778036010 | 16.67° C | 88% | 1006.1 hPa | - | 2.68 m/s, 180° | - | - |
| 1778035410 | 16.67° C | 88% | 1006.1 hPa | - | 2.68 m/s, 180° | - | - |
| 1778034809 | 17.78° C | 88% | 1006.1 hPa | - | 3.58 m/s, 170° | - | - |
| 1778034211 | 17.78° C | 88% | 1006.1 hPa | - | 2.68 m/s, 160° | - | - |
| 1778033611 | 17.78° C | 88% | 1006.1 hPa | - | 2.68 m/s, 160° | - | - |
| 1778033012 | 17.78° C | 88% | 1006.1 hPa | - | 2.68 m/s, 160° | - | - |
| 1778032411 | 16.67° C | 93% | 1006.4 hPa | - | 2.68 m/s, 170° | - | - |
| 1778031811 | 17.78° C | 88% | 1006.8 hPa | - | 2.68 m/s, 180° | - | - |
| 1778031211 | 17.78° C | 88% | 1006.8 hPa | - | 2.68 m/s, 180° | - | - |
| 1778030609 | 16.67° C | 88% | 1006.4 hPa | - | 2.68 m/s, 170° | - | - |
| 1778030012 | 16.67° C | 88% | 1006.4 hPa | - | 2.68 m/s, 170° | - | - |
| 1778029409 | 16.67° C | 88% | 1006.4 hPa | - | 2.68 m/s, 170° | - | - |
| 1778028812 | 16.67° C | 88% | 1007.1 hPa | - | 2.68 m/s, 170° | - | - |
| 1778028210 | 16.67° C | 88% | 1007.1 hPa | - | 2.68 m/s, 170° | - | - |
| 1778027609 | 16.67° C | 88% | 1007.1 hPa | - | 2.68 m/s, 170° | - | - |
| 1778027009 | 16.67° C | 88% | 1007.1 hPa | - | 2.68 m/s, 170° | - | - |
| 1778026415 | 16.67° C | 88% | 1007.1 hPa | - | 2.68 m/s, 170° | - | - |
* Rain since midnight (hover to see other rain measurements)
** Current wind speed in m/s (hover to see current wind gust speed)